www.pogodaiklimat.ru

Погода и климат >> Архив погоды >> Аргентина >> Las Lomitas


ПОГОДА в Las Lomitas

  • Прогноз погоды в Las Lomitas
  • Монитор погоды в Las Lomitas
  • Климат города

АРХИВ ПОГОДЫ в Las Lomitas

Время (UTC), дата Ветер
(напр.,м/с)
 
Видим.   Явления Облачность Т
(С)
Тd
(С)
f
(%)
Тe
(С)
Тes
(С)
Комфортность P
(гПа)
Po
(гПа)
Тmin
(С)
Tmax
(С)
R
(мм)
R24
(мм)
S
(см)
09 14.04 ЮВ 1 15 км слабая морось 10/10 270 м
[Frnb]
+14.8 +14.3 97 +15 +15 1024.6 1008.9
12 14.04 штиль 0 18 км слабая морось 10/10 270 м
[Frnb]
+15.8 +15.1 96 +16 +16 1026.2 1010.5 +14.8 +15.8 0.0
15 14.04 ЮВ 1 20 км в посл. час морось 10/10 300 м
[St]
+19.4 +16.8 85 +22 +22 комфорт 1026.5 1010.9
18 14.04 ЮЗ 2 20 км {морось} 10/10 600 м
[Sc]
+22.4 +18.3 78 +28 +28 душно 1022.0 1006.6 0.0
21 14.04 ЮЗ 1 20 км 10/10 300 м
[St]
+22.2 +18.4 79 +27 +27 душно 1021.2 1005.8
00 15.04 ЮЗ 1 20 км 10/10 300 м
[St]
+21.2 +19.0 87 +26 +26 душно 1022.4 1007.0 +15.8 +22.4
09 15.04 Ю 1 20 км 10/10 600 м
[St]
+20.2 +18.9 92 +25 +25 комфорт 1022.9 1007.7
12 15.04 Ю 1 20 км в посл. час морось 10/10 900 м
[St]
+20.8 +19.6 93 +26 +26 душно 1024.0 1008.8 +20.0 +21.2 0.0
15 15.04 Ю 2 20 км {морось} 8/8 1200 м
[Sc]
+26.0 +19.6 68 +32 +34 очень
душно
1023.9 1008.8
18 15.04 ЮЗ 1 20 км 4/4 1050 м
[Cu hum]
+29.0 +20.0 58 +35 +43 очень
душно
1023.8 1008.8
21 15.04 ЮЗ 1 20 км 1/1 1050 м
[Cu hum]
+28.8 +20.1 59 +35 +36 очень
душно
1022.2 1007.2
00 16.04 ЮЗ 1 20 км ясно +24.2 +22.1 88 +31 +31 очень
душно
1023.2 1008.0 +20.8 +30.0
09 16.04 штиль 0 20 км ясно +19.8 +18.5 92 +22 +22 комфорт 1019.6 1004.5
12 16.04 ЮВ 1 20 км ясно +22.0 +19.5 86 +28 +31 душно 1020.8 1005.7 +19.5 +24.2
15 16.04 СЗ 1 20 км ясно +29.6 +19.6 55 +36 +51 опасность
солнечного
удара
1019.9 1005.0
18 16.04 СВ 1 20 км 6/6 1200 м
[Cu hum]
+31.6 +19.2 48 +37 +42 очень
душно
1017.0 1002.0
21 16.04 В 1 20 км 1/1 1350 м
[Cu hum]
+30.2 +18.2 49 +35 +36 очень
душно
1015.5 1000.5
00 17.04 В 1 20 км ясно +25.0 +18.8 68 +30 +30 душно 1016.3 1001.3 +22.0 +32.5
09 17.04 штиль 0 20 км ясно +20.2 +18.6 91 +23 +23 комфорт 1018.1 1003.2
12 17.04 СЗ 1 20 км ясно +23.2 +19.5 80 +30 +33 очень
душно
1019.8 1004.8 +20.0 +25.0
15 17.04 СВ 3 20 км 1/1 1200 м
[Cu hum]
+30.6 +19.4 51 +36 +46 очень
душно
1020.0 1005.0
18 17.04 СВ 2 20 км 5/5 900 м
[Cu hum]
+32.8 +17.0 39 +36 +41 очень
душно
1015.4 1000.6
21 17.04 СВ 2 20 км 1/1 1500 м
[Cu hum]
+31.2 +17.2 43 +35 +35 очень
душно
1014.7 999.8
00 18.04 СВ 1 20 км ясно +25.2 +18.7 67 +30 +30 душно 1015.8 1000.8 +23.2 +35.0
09 18.04 штиль 0 20 км ясно +19.6 +18.0 90 +22 +22 комфорт 1016.9 1002.0 +18.2
12 18.04 СВ 1 20 км ясно +23.8 +18.8 74 +29 +32 душно 1018.0 1003.0 +19.6 +25.2
15 18.04 СВ 2 20 км 3/3 1500 м
[Cu hum]
+31.4 +20.1 51 +38 +47 очень
душно
1017.6 1002.8
18 18.04 СВ 3 20 км 5/5 1500 м
[Cu hum]
+34.0 +19.3 42 +39 +44 очень
душно
1017.3 1002.5
21 18.04 СВ 1 20 км 1/1 1500 м
[Cu hum]
+31.6 +19.6 49 +37 +38 очень
душно
1016.1 1001.2
00 19.04 СВ 1 20 км ясно +26.6 +20.3 68 +33 +33 очень
душно
1016.8 1001.8 +23.8 +34.0
09 19.04 СВ 1 20 км ясно +21.8 +20.3 91 +28 +28 душно 1014.0 999.2
12 19.04 СВ 2 20 км ясно +25.2 +21.3 79 +32 +35 очень
душно
1015.3 1000.4 +21.5 +26.6
15 19.04 СВ 3 20 км 5/5 900 м
[Cu hum]
+31.2 +21.2 55 +39 +45 очень
душно
1014.6 999.8
18 19.04 СВ 2 20 км 6/6 1200 м
[Cu hum]
+33.0 +19.5 45 +39 +43 очень
душно
1012.1 997.3
21 19.04 СВ 1 20 км 4/4 1350 м
[Cu hum]
+31.6 +19.6 49 +37 +38 очень
душно
1010.8 996.0
00 20.04 В 1 20 км 3/0
[Ac trans]
+26.4 +20.0 68 +32 +32 очень
душно
1012.5 997.6 +25.2 +34.0
09 20.04 штиль 0 20 км ясно +22.4 +20.6 90 +29 +29 очень
душно
1015.9 1001.0
12 20.04 СВ 1 20 км ясно +25.0 +20.5 76 +31 +34 очень
душно
1017.3 1002.4 +20.0 +26.4
15 20.04 СВ 3 20 км ясно +31.8 +19.8 49 +38 +48 очень
душно
1016.5 1001.7
18 20.04 СВ 2 20 км 4/4 1500 м
[Cu hum]
+33.6 +19.2 43 +39 +45 очень
душно
1011.0 996.4
21 20.04 СВ 2 20 км ясно +31.2 +19.1 49 +37 +37 очень
душно
1010.1 995.3
00 21.04 СВ 1 20 км ясно +26.5 +20.0 68 +33 +33 очень
душно
1011.5 996.6 +25.0 +34.0

 

Местоположение метеостанции Las Lomitas (Аргентина): широта -24.70 долгота -60.58 высота над уровнем моря 130 м.

В архиве по умолчанию представлена погода в Las Lomitas за последнюю неделю. Архивные данные за месяц целиком и за предыдущие месяцы, начиная с января 2011 года, Вы можете получить, выбрав интересующий диапазон дат из раскрывающегося списка и нажав кнопку "Ввод!".


*Определитесь, кто Вы:
робот инопланетянин человек

Внимание! Время в таблицах - всемирное. Для получения местного времени необходимо прибавить поправку, которая в Las Lomitas равна -3 ч.

Смотрите также архив погоды в соседних городах и на ближайших метеорологических станциях:

Погода в Gral. Bruguez (Парагвай) (177 км)
Погода в Pozo Colorado (Парагвай) (225 км)
Погода в Presidencia Roque Saenz Pena (Аргентина) (226 км)
Погода в Prats-Gil (Парагвай) (241 км)
Погода в Formosa (Аргентина) (289 км)
Погода в Mariscal Estigar (Парагвай) (299 км)
Погода в Asuncion (Парагвай) (316 км)
Погода в Pilar (Парагвай) (330 км)
Погода в Resistencia (Аргентина) (342 км)
Погода в Corrientes (Аргентина) (356 км)

Пояснения к столбцам:

Ветер - указаны скорость ветра в м/с - средняя за 10 мин, порывы в срок и между сроками (в фигурных скобках) и направление, откуда дует ветер: С - северный, СВ - северо-восточный, В - восточный, ЮВ - юго-восточный, Ю - южный, ЮЗ - юго-западный, З - западный, СЗ - северо-западный.
Видимость - горизонтальная дальность видимости в метрах или километрах. При видимости от 1 до 10 км при отсутствии осадков обычно наблюдается дымка, при ухудшении видимости до 1 км и менее - туман. В сухую погоду видимость может ухудшаться дымом, пылью или мглою.
Явления - указаны атмосферные явления, наблюдавшиеся в срок или в последний час перед сроком; фигурными скобками обозначены явления, наблюдавшиеся между сроками (за 1-3 часа до срока); квадратными скобками обозначены град или гололедные отложения с указанием их диаметра в мм.
Облачность - указаны через наклонную черту общая и нижняя облачность в баллах и высота нижней границы облаков в метрах; квадратными скобками обозначены формы облаков: Ci - перистые, Cs - перисто-слоистые, Cc - перисто-кучевые, Ac - высококучевые, As - высокослоистые, Sc - слоисто-кучевые, Ns - слоисто-дождевые, Cu - кучевые, Cb - кучево-дождевые. Подробнее классификацию облаков см. в Атласе облаков (PDF).
T - Температура воздуха - температура, измеренная на высоте 2 м над землей.
Td - Температура точки росы - температура, при понижении до которой содержащийся в воздухе водяной пар достигнет насыщения.
f - Относительная влажность воздуха - влажноcть воздуха, измеренная на высоте 2 м над землей.
Te - Эффективная температура - температура, которую ощущает одетый по сезону человек в тени. Характеристика душности погоды. При расчете учитывается влияние влажности воздуха и скорости ветра на теплоощущения человека.
Tes - Эффективная температура на солнце - температура, которую ощущает человек, с поправкой на солнечный нагрев. Характеристика знойности погоды. Зависит от высоты солнца над горизонтом, облачности и скорости ветра. Ночью, в пасмурную погоду, а также при ветре 12 м/с и более поправка равна нулю.
P - Атмосферное давление - приведенное к уровню моря атмосферное давление.
Po - Атмосферное давление - измеренное на уровне метеостанции атмосферное давление.
Tmin - Минимальная температура - минимум температуры воздуха на высоте 2 м над землей.
Tmax - Максимальная температура - максимум температуры воздуха на высоте 2 м над землей.
R - Количество осадков - Количество выпавших осадков за период времени, мм. При наведении курсора мыши на число - период времени, за который выпало указанное количество осадков.
R24 - Количество осадков - Количество выпавших осадков за 24 часа, мм.
S - Снежный покров - Высота снежного покрова, см. При наведении курсора мыши на число - состояние снежного покрова и степень покрытия местности в баллах.